Regional Weather Roundup
Issued by NWS

Home | Current Version | Previous Version | Text Only | Print | Product List | Glossary On
Versions: 1 2 3 4 5 6 7 8 9 10 11 12 13 14 15 16 17 18 19 20 21 22 23 24 25 26 27 28 29 30 31 32 33 34 35 36 37 38 39 40 41 42 43 44 45 46 47 48 49 50
000
ASUS43 KMPX 031910
RWRMN
WEATHER ROUNDUP FOR MINNESOTA
NATIONAL WEATHER SERVICE TWIN CITIES/CHANHASSEN MN
100 PM CST SAT DEC 03 2016


NOTE: "FAIR" INDICATES FEW OR NO CLOUDS BELOW 12,000 FEET WITH NO
SIGNIFICANT WEATHER AND/OR OBSTRUCTIONS TO VISIBILITY. N/A MEANS
CURRENT SKY AND/OR WEATHER CONDITIONS ARE NOT AVAILABLE.

MNZ060>063-068>070-032000-
   Twin Cities Metro

CITY           SKY/WX    TMP DP  RH WIND       PRES   REMARKS
TWIN CITIES    CLOUDY    31  19  61 NW3       30.25F
ST PAUL        PTSUNNY   31  21  66 CALM      30.27F
CRYSTAL        PTSUNNY   31  18  58 SE5       30.23F WCI  26
BLAINE         CLOUDY    32  21  64 SW6       30.24F WCI  26
LAKEVILLE        N/A     28  21  74 CALM      30.25F
EDEN PRAIRIE   MOSUNNY   32  20  61 SE7       30.23F WCI  26
SOUTH ST PAUL  MOSUNNY   32  20  61 CALM      30.25F
LAKE ELMO      CLOUDY    32  23  69 SW3       30.26F
$$
MNZ001>005-007-008-013>017-022>024-027-028-032000-
   Northwest Minnesota

CITY           SKY/WX    TMP DP  RH WIND       PRES   REMARKS
BEMIDJI        CLOUDY    25  19  80 SE8       30.15F WCI  16
HALLOCK        CLOUDY    28  27  93 S21G26    30.08F WCI  15
ROSEAU         CLOUDY    27  21  80 S10G17    30.13F WCI  17
WARROAD        CLOUDY    27  21  80 S12       30.14F WCI  16
THIEF RVR FALL CLOUDY    27  20  75 SE15G23   30.12F WCI  15
CROOKSTON      CLOUDY    28  21  74 S18       30.13S WCI  16
FOSSTON        CLOUDY    27  21  80 S13G18    30.12F WCI  16
DETROIT LAKES  SUNNY     30  23  74 S15       30.13F WCI  19
MOORHEAD       PTSUNNY   30  23  74 S17       30.13F WCI  18
PARK RAPIDS    CLOUDY    26  17  68 SE14      30.16F WCI  14
$$
MNZ006-009>011-018-025>026-032000-
   North Central Minnesota

CITY           SKY/WX    TMP DP  RH WIND       PRES   REMARKS
BAUDETTE       CLOUDY    26  19  74 S12       30.15F WCI  16
FLAG ISLAND    CLOUDY    27  23  86 S17G23    30.12F WCI  14
INTL FALLS     CLOUDY    26  19  74 VRB5      30.18F WCI  20
WASKISH        CLOUDY    27  19  74 S6        30.16F WCI  20
BIG FORK       CLOUDY    27  21  80 S8        30.18F WCI  18
LONGVILLE      CLOUDY    27  19  74 S7        30.18F WCI  19
GRAND RAPIDS   CLOUDY    27  19  72 S10       30.20F WCI  17
CRANE LAKE     CLOUDY    27  21  80 S3        30.21F
ORR            CLOUDY    27  18  69 CALM      30.16S
COOK           CLOUDY    27  21  80 S5        30.19F WCI  21
$$
MNZ012-019>021-037-032000-
   Northeast Minnesota

CITY           SKY/WX    TMP DP  RH WIND       PRES   REMARKS
DULUTH         FLURRIES  28  23  81 S5        30.21S WCI  23
ELY            CLOUDY    25  21  86 CALM      30.20F
HIBBING        CLOUDY    26  19  74 SE9       30.19F WCI  17
EVELETH        CLOUDY    28  21  76 SW6       30.21S WCI  21
DULUTH HARBOR  CLOUDY    32  27  80 CALM      30.26S
TWO HARBORS    CLOUDY    32  27  80 W3        30.20F
SILVER BAY     CLOUDY    30  27  86 CALM      30.21S
GRAND MARAIS     N/A     34  26  72 SW3       30.23F
G MARAIS ARPRT CLOUDY    27  19  74 CALM      30.18F
$$
MNZ029>031-032-039>041-046>048-054>057-064-032000-
   West Central Minnesota

CITY           SKY/WX    TMP DP  RH WIND       PRES   REMARKS
FERGUS FALLS   PTSUNNY   28  21  74 SE16      30.17F WCI  17
WHEATON        SUNNY    N/A N/A N/A SE16      30.14F
MORRIS         SUNNY     32  27  80 SE15        N/A  WCI  22
ALEXANDRIA     SUNNY     30  21  69 SE13      30.16F WCI  20
ELBOW LAKE     FAIR      31  23  72 SE14      30.13F WCI  21
WADENA         PTSUNNY   27  19  74 S12       30.16F WCI  16
GLENWOOD       SUNNY     30  23  74 SE12      30.16F WCI  21
APPLETON       MOSUNNY   34  25  69 SE12      30.14F WCI  25
BENSON         SUNNY     32  25  74 S13       30.16F WCI  22
ORTONVILLE     CLOUDY    32  27  80 SE13G18   30.13F WCI  22
MADISON        PTSUNNY   34  28  80 SE15      30.14F WCI  24
WILLMAR        FAIR      32  27  80 SE9       30.19F WCI  24
$$
MNZ033>034-036-042>043-049>051-058-059-032000-
   Central Minnesota

CITY           SKY/WX    TMP DP  RH WIND       PRES   REMARKS
ST CLOUD       MOSUNNY   28  20  71 S7        30.22F WCI  21
PAYNESVILLE    SUNNY     30  21  68 SE7       30.19F WCI  24
AITKIN         CLOUDY    30  19  64 S7        30.19F WCI  23
PINE RIVER     CLOUDY    27  19  74 S8        30.22S WCI  18
BRAINERD       CLOUDY    26  19  74 S9        30.21F WCI  17
STAPLES        CLOUDY    27  18  69 S12       30.18F WCI  16
LONG PRAIRIE   FAIR      28  19  69 E7        30.18F WCI  21
LITTLE FALLS   CLOUDY    30  19  64 S9        30.21F WCI  22
LITCHFIELD     PTSUNNY   30  23  74 SE7       30.21F WCI  23
BUFFALO        SUNNY     30  20  65 SE3       30.24F
MAPLE LAKE     MOSUNNY   32  23  69 SE6       30.23F WCI  26
$$
MNZ037-044-045-052-053-032000-
   East Central Minnesota

CITY           SKY/WX    TMP DP  RH WIND       PRES   REMARKS
PRINCETON      CLOUDY    30  21  69 CALM      30.23F
MORA           PTSUNNY   32  23  69 SW6       30.25F WCI  26
CAMBRIDGE      CLOUDY    34  21  60 E5        30.22F WCI  30
RUSH CITY      CLOUDY    30  21  69 S6        30.25F WCI  24
MOOSE LAKE     CLOUDY    32  21  64 S3        30.21S
HINCKLEY       CLOUDY    32  25  74 S7        30.24F WCI  26
CLOQUET        CLOUDY    28  21  74 S5        30.21F WCI  23
MCGREGOR       CLOUDY    30  23  74 S7        30.21F WCI  23
$$
MNZ071>073-080-081-089-090-097-098-032000-
   Southwest Minnesota

CITY           SKY/WX    TMP DP  RH WIND       PRES   REMARKS
MONTEVIDEO     SUNNY     34  27  75 S9        30.18F WCI  26
GRANITE FALLS  SUNNY     33  27  79 SE16      30.19F WCI  23
CANBY          CLOUDY    35  30  83 SE13      30.14F WCI  26
MARSHALL       MOSUNNY   35  28  75 S14       30.15F WCI  26
REDWOOD FALLS  SUNNY     33  24  69 SE12      30.20F WCI  24
OLIVIA         SUNNY     34  28  80 SE10      30.18F WCI  26
PIPESTONE      CLOUDY    34  30  86 S14       30.12F WCI  24
WINDOM         PTSUNNY   36  28  75 S12G18    30.19F
WORTHINGTON    CLOUDY    34  30  85 S16       30.18F WCI  24
JACKSON        CLOUDY    32  28  86 S13       30.21F WCI  22
TRACY          PTSUNNY   34  31  87 S13       30.16F WCI  25
SLAYTON        MOSUNNY   33  30  88 S17G23    30.16F WCI  22
$$
MNZ065>067-074>077-082>085-091>093-032000-
   South Central Minnesota

CITY           SKY/WX    TMP DP  RH WIND       PRES   REMARKS
MANKATO        MOSUNNY   32  23  69 SE7       30.23F WCI  26
NEW ULM        SUNNY     34  23  64 S8        30.22S WCI  27
ST JAMES       MOSUNNY   34  27  75 S14       30.24R WCI  24
FAIRMONT       SUNNY     34  26  72 S13       30.24S WCI  25
GLENCOE        CLOUDY    32  25  74 E6        30.21F WCI  26
FARIBAULT      MOSUNNY   32  23  69 CALM      30.24F
OWATONNA       MOSUNNY   34  21  60 CALM      30.23F
WASECA         CLOUDY    32  25  74 SE5       30.24F WCI  27
ALBERT LEA     CLOUDY    36  27  69 SE3       30.24F
$$
MNZ078>079-086>088-094>096-032000-
   Southeast Minnesota

CITY           SKY/WX    TMP DP  RH WIND       PRES   REMARKS
ROCHESTER      CLOUDY    29  22  75 S3        30.25F
RED WING       CLOUDY    30  19  64 CALM      30.26F
STANTON        CLOUDY    32  22  67 CALM      30.24F
DODGE CENTER   MOSUNNY   30  21  69 E3        30.24F
WINONA           N/A     34  23  64 CALM      30.29F
AUSTIN         MOSUNNY   32  21  64 CALM      30.25S
PRESTON        CLOUDY    30  21  69 W3        30.27F
$$
ABBREVIATIONS USED IN REMARKS
   TC - TEMPERATURES IN CELSIUS
  WCI - WIND CHILL INDEX
   HX - HEAT INDEX
  VSB - VISIBILITY
$$




USA.gov is the U.S. government's official web portal to all federal, state and local government web resources and services.